Clinton, AR

2:56 AM CDT on September 18, 2019 (GMT -0500)
Clinton

Weather History for KCCA - July, 2019

Change the Weather History Date:

Saturday, July 20, 2019

  Actual Average (KBVX) Record (KBVX)
Temperature  
Mean Temperature 82 °F -  
Max Temperature 93 °F 93 °F 104 °F (2006)
Min Temperature 71 °F 69 °F 60 °F (1967)
Cooling Degree Days 17    
Growing Degree Days 32 (Base 50)    
Moisture  
Dew Point 75 °F    
Average Humidity 79    
Maximum Humidity 100    
Minimum Humidity 52    
Precipitation  
Precipitation 0.00 in - - ()
Sea Level Pressure  
Sea Level Pressure 29.96 in    
Wind  
Wind Speed 2 mph (SW)    
Max Wind Speed 9 mph    
Max Gust Speed 15 mph    
Visibility 10 miles    
Events      
Averages and records for this station are not official NWS values.
T = Trace of Precipitation, MM = Missing Value Source: NWS Daily Summary

Daily Weather History Graph

Daily Weather History Graph

Search for Another Location

Airport or City:

Astronomy

Jul. 20, 2019 Rise Set
Actual Time 6:08 AM CDT 8:23 PM CDT
Civil Twilight 5:39 AM CDT 8:51 PM CDT
Nautical Twilight 5:04 AM CDT 9:27 PM CDT
Astronomical Twilight 4:25 AM CDT 10:05 PM CDT
Moon 10:57 PM CDT (7/20) 9:28 AM CDT (7/20)
Length of Visible Light 15h 11m
Length of Day
14h 14m
Waning Gibbous, 87% of the Moon is Illuminated
Jul 20
Waning Gibbous
Jul 24
Last Quarter
Jul 31
New
Aug 7
First Quarter
Aug 15
Full

Hourly Weather History & Observations

Time (CDT) Temp. Heat Index Dew Point Humidity Pressure Visibility Wind Dir Wind Speed Gust Speed Precip Events Conditions
12:15 AM 75.2 °F - 75.2 °F 100% 29.97 in 10.0 mi Calm Calm - N/A   Clear
12:35 AM 75.2 °F - 75.2 °F 100% 29.97 in 10.0 mi Calm Calm - N/A   Clear
12:55 AM 75.2 °F - 73.4 °F 94% 29.96 in 9.0 mi Calm Calm - N/A   Clear
1:15 AM 75.2 °F - 75.2 °F 100% 29.96 in 10.0 mi Calm Calm - N/A   Clear
1:55 AM 75.2 °F - 73.4 °F 94% 29.96 in 10.0 mi Calm Calm - N/A   Clear
2:15 AM 73.4 °F - 73.4 °F 100% 29.96 in 10.0 mi Calm Calm - N/A   Clear
2:35 AM 73.4 °F - 73.4 °F 100% 29.96 in 10.0 mi Calm Calm - N/A   Clear
2:55 AM 73.4 °F - 73.4 °F 100% 29.96 in 7.0 mi Calm Calm - N/A   Clear
3:15 AM 73.4 °F - 73.4 °F 100% 29.96 in 9.0 mi Calm Calm - N/A   Clear
3:35 AM 73.4 °F - 73.4 °F 100% 29.96 in 2.5 mi Calm Calm - N/A   Clear
3:55 AM 73.4 °F - 73.4 °F 100% 29.97 in 9.0 mi Calm Calm - N/A   Clear
4:15 AM 73.4 °F - 73.4 °F 100% 29.97 in 10.0 mi Calm Calm - N/A   Clear
4:35 AM 73.4 °F - 71.6 °F 94% 29.97 in 8.0 mi Calm Calm - N/A   Partly Cloudy
4:55 AM 71.6 °F - 71.6 °F 100% 29.99 in 0.8 mi Calm Calm - N/A   Mostly Cloudy
5:15 AM 71.6 °F - 71.6 °F 100% 29.99 in 10.0 mi Calm Calm - N/A   Partly Cloudy
5:35 AM 71.6 °F - 71.6 °F 100% 30.00 in 10.0 mi Calm Calm - N/A   Partly Cloudy
5:55 AM 71.6 °F - 71.6 °F 100% 30.00 in 5.0 mi Calm Calm - N/A   Clear
6:15 AM 71.6 °F - 71.6 °F 100% 30.01 in 8.0 mi Calm Calm - N/A   Clear
6:35 AM 71.6 °F - 71.6 °F 100% 30.01 in 10.0 mi Calm Calm - N/A   Clear
6:55 AM 71.6 °F - 71.6 °F 100% 30.02 in 6.0 mi Calm Calm - N/A   Clear
7:35 AM 75.2 °F - 73.4 °F 94% 30.02 in 10.0 mi Calm Calm - N/A   Overcast
7:55 AM 77.0 °F - 75.2 °F 94% 30.02 in 10.0 mi Calm Calm - N/A   Mostly Cloudy
8:15 AM 78.8 °F - 75.2 °F 89% 30.02 in 10.0 mi Calm Calm - N/A   Partly Cloudy
8:35 AM 80.6 °F 87.1 °F 77.0 °F 89% 30.02 in 10.0 mi Calm Calm - N/A   Clear
8:55 AM 82.4 °F 90.9 °F 77.0 °F 84% 30.02 in 10.0 mi Calm Calm - N/A   Clear
9:15 AM 84.2 °F 94.1 °F 77.0 °F 79% 30.01 in 10.0 mi Calm Calm - N/A   Clear
9:35 AM 86.0 °F 95.1 °F 75.2 °F 70% 30.01 in 10.0 mi Calm Calm - N/A   Clear
9:55 AM 86.0 °F 95.1 °F 75.2 °F 70% 30.00 in 10.0 mi Calm Calm - N/A   Partly Cloudy
10:15 AM 87.8 °F 99.7 °F 77.0 °F 70% 30.00 in 10.0 mi SW 5.8 mph - N/A   Partly Cloudy
10:35 AM 87.8 °F 97.6 °F 75.2 °F 66% 30.00 in 10.0 mi SW 8.1 mph - N/A   Partly Cloudy
10:55 AM 87.8 °F 97.6 °F 75.2 °F 66% 29.99 in 10.0 mi WSW 8.1 mph - N/A   Scattered Clouds
11:15 AM 87.8 °F 99.7 °F 77.0 °F 70% 29.98 in 10.0 mi Variable 5.8 mph - N/A   Scattered Clouds
11:35 AM 89.6 °F 102.2 °F 77.0 °F 66% 29.98 in 10.0 mi Variable 6.9 mph - N/A   Scattered Clouds
11:55 AM 87.8 °F 97.6 °F 75.2 °F 66% 29.98 in 10.0 mi WSW 5.8 mph 12.7 mph N/A   Partly Cloudy
12:15 PM 89.6 °F 102.2 °F 77.0 °F 66% 29.97 in 10.0 mi SSW 8.1 mph - N/A   Scattered Clouds
12:35 PM 87.8 °F 99.7 °F 77.0 °F 70% 29.97 in 10.0 mi WSW 4.6 mph - N/A   Mostly Cloudy
12:55 PM 91.4 °F 102.5 °F 75.2 °F 59% 29.97 in 10.0 mi WSW 8.1 mph - N/A   Partly Cloudy
1:15 PM 91.4 °F 102.5 °F 75.2 °F 59% 29.97 in 10.0 mi WSW 9.2 mph 15.0 mph N/A   Partly Cloudy
1:35 PM 91.4 °F 100.1 °F 73.4 °F 55% 29.97 in 10.0 mi SSW 9.2 mph - N/A   Clear
1:55 PM 91.4 °F 100.1 °F 73.4 °F 55% 29.96 in 10.0 mi South 6.9 mph 15.0 mph N/A   Clear
2:15 PM 91.4 °F 100.1 °F 73.4 °F 55% 29.96 in 10.0 mi Variable 6.9 mph - N/A   Clear
2:35 PM 93.2 °F 102.4 °F 73.4 °F 52% 29.96 in 10.0 mi Variable 5.8 mph 12.7 mph N/A   Clear
2:55 PM 93.2 °F 105.0 °F 75.2 °F 56% 29.96 in 10.0 mi Variable 4.6 mph 11.5 mph N/A   Partly Cloudy
3:15 PM 93.2 °F 105.0 °F 75.2 °F 56% 29.95 in 10.0 mi Variable 5.8 mph - N/A   Partly Cloudy
3:55 PM 93.2 °F 105.0 °F 75.2 °F 56% 29.93 in 10.0 mi South 4.6 mph - N/A   Partly Cloudy
4:15 PM 93.2 °F 105.0 °F 75.2 °F 56% 29.93 in 10.0 mi SW 5.8 mph - N/A   Scattered Clouds
4:35 PM 93.2 °F 105.0 °F 75.2 °F 56% 29.93 in 10.0 mi Variable 4.6 mph - N/A   Partly Cloudy
4:55 PM 91.4 °F 102.5 °F 75.2 °F 59% 29.93 in 10.0 mi SSW 5.8 mph - N/A   Scattered Clouds
5:15 PM 91.4 °F 100.1 °F 73.4 °F 55% 29.92 in 10.0 mi SSW 5.8 mph - N/A   Partly Cloudy
5:35 PM 91.4 °F 102.5 °F 75.2 °F 59% 29.92 in 10.0 mi SSW 6.9 mph - N/A   Partly Cloudy
5:55 PM 91.4 °F 100.1 °F 73.4 °F 55% 29.91 in 10.0 mi SSW 6.9 mph - N/A   Clear
6:15 PM 91.4 °F 100.1 °F 73.4 °F 55% 29.90 in 10.0 mi SSW 5.8 mph - N/A   Clear
6:35 PM 91.4 °F 102.5 °F 75.2 °F 59% 29.91 in 10.0 mi SW 5.8 mph - N/A   Scattered Clouds
6:55 PM 89.6 °F 99.8 °F 75.2 °F 62% 29.91 in 10.0 mi Variable 3.5 mph - N/A   Partly Cloudy
7:15 PM 89.6 °F 99.8 °F 75.2 °F 62% 29.91 in 10.0 mi Calm Calm - N/A   Partly Cloudy
7:35 PM 87.8 °F 99.7 °F 77.0 °F 70% 29.91 in 10.0 mi Calm Calm - N/A   Clear
7:55 PM 86.0 °F 99.3 °F 78.8 °F 79% 29.91 in 10.0 mi Calm Calm - N/A   Clear
8:15 PM 86.0 °F 99.3 °F 78.8 °F 79% 29.91 in 10.0 mi Calm Calm - N/A   Clear
8:35 PM 82.4 °F 90.9 °F 77.0 °F 84% 29.91 in 10.0 mi Calm Calm - N/A   Clear
8:55 PM 80.6 °F 87.1 °F 77.0 °F 89% 29.92 in 10.0 mi Calm Calm - N/A   Clear
9:15 PM 80.6 °F 87.1 °F 77.0 °F 89% 29.93 in 10.0 mi Calm Calm - N/A   Light Drizzle
9:35 PM 80.6 °F 87.1 °F 77.0 °F 89% 29.92 in 10.0 mi Calm Calm - N/A   Partly Cloudy
9:55 PM 80.6 °F 87.1 °F 77.0 °F 89% 29.92 in 10.0 mi Variable 4.6 mph - N/A   Clear
10:15 PM 82.4 °F 89.5 °F 75.2 °F 79% 29.93 in 10.0 mi Calm Calm - N/A   Clear
10:55 PM 78.8 °F - 77.0 °F 94% 29.92 in 10.0 mi Calm Calm - N/A   Clear
11:15 PM 77.0 °F - 75.2 °F 94% 29.93 in 10.0 mi Calm Calm - N/A   Clear
11:35 PM 77.0 °F - 75.2 °F 94% 29.94 in 10.0 mi Calm Calm - N/A   Clear
11:55 PM 77.0 °F - 75.2 °F 94% 29.94 in 10.0 mi Calm Calm - N/A   Clear